• Join FlightAware (Why Join?)
  • Login
  • US Flag 
01:34PM EDT


 

Airport Tracker/Info


-or-


 

Live Flight TrackerFlight Track Log ✈ N779NC ✈ 08-Jul-2013 ✈ KBNA - KDTW

Flight Track Log - Related Links

Times and Time Zones

All times are in EDT time to prevent confusion due to time zone crossing. See the N779NC flight status page for this flight to view local times or setup timezone preferences in your user account.

Time Position Orientation Groundspeed Altitude Reporting Facility
EDT Latitude Longitude Course Direction KTS MPH feet Rate Location/Type
07:18PM 36.1500 -86.6667 340° North 153 176 1,300  Level Nashville TRACON
07:19PM 36.2167 -86.6333 22° Northeast 240 276 2,600 1,320 Climbing Nashville TRACON
07:20PM 36.3000 -86.6333 360° North 291 335 4,500 2,100 Climbing Nashville TRACON
07:21PM 36.5185 -86.8592 338° Northwest  Level FlightAware Approximate
07:21PM 36.3725 -86.6636 341° North 312 359 7,300  Level Memphis Center
07:22PM 36.6184 -86.9091 338° Northwest  Level FlightAware Approximate
07:22PM 36.4544 -86.6881 347° North 312 359 9,900  Level Memphis Center
07:23PM 36.7186 -86.9583 340° North  Level FlightAware Approximate
07:23PM 36.5450 -86.7178 345° North 318 366 10,900  Level Memphis Center
07:24PM 36.6500 -86.7464 348° North 358 412 12,300 1,680 Climbing Memphis Center
07:25PM 36.7572 -86.7753 348° North 380 437 14,300 1,800 Climbing Memphis Center
07:26PM 36.8528 -86.8358 333° Northwest 386 444 15,900 1,500 Climbing Memphis Center
07:27PM 36.9406 -86.9256 321° Northwest 393 452 17,400 1,680 Climbing Memphis Center
07:28PM 37.0367 -87.0097 325° Northwest 407 468 19,300 1,500 Climbing Memphis Center
07:30PM 37.2089 -86.9936 North 436 502 21,300 1,260 Climbing Indianapolis Center
07:31PM 37.3325 -86.9617 12° North 446 513 22,600 1,320 Climbing Indianapolis Center
07:32PM 37.4572 -86.9411 North 449 517 24,100 1,740 Climbing Indianapolis Center
07:33PM 37.5947 -86.9206 North 446 513 26,200 1,620 Climbing Indianapolis Center
07:34PM 37.6958 -86.8350 34° Northeast 451 519 27,500 1,200 Climbing Indianapolis Center
07:35PM 37.7903 -86.7297 41° Northeast 453 521 28,800 720 Climbing Indianapolis Center
07:36PM 37.8806 -86.6164 45° Northeast 457 526 29,000 60 Climbing Indianapolis Center
07:37PM 37.9744 -86.5014 44° Northeast 469 540 29,000  Level Indianapolis Center
07:38PM 38.0936 -86.3736 40° Northeast 469 540 29,000  Level Indianapolis Center
07:39PM 38.1883 -86.2606 43° Northeast 468 539 29,000  Level Indianapolis Center
07:40PM 38.2836 -86.1478 43° Northeast 470 541 29,000  Level Indianapolis Center
07:41PM 38.3842 -86.0425 39° Northeast 468 539 29,000  Level Indianapolis Center
07:42PM 38.4814 -85.9300 42° Northeast 471 542 29,000  Level Indianapolis Center
07:43PM 38.5783 -85.8203 41° Northeast 468 539 29,000  Level Indianapolis Center
07:44PM 38.7006 -85.6911 39° Northeast 472 543 29,000  Level Indianapolis Center
07:45PM 38.7931 -85.5819 43° Northeast 474 545 29,000  Level Indianapolis Center
07:46PM 38.8953 -85.4764 39° Northeast 473 544 29,000  Level Indianapolis Center
07:47PM 39.0031 -85.3856 33° Northeast 469 540 29,000  Level Indianapolis Center
07:48PM 39.1106 -85.2964 33° Northeast 466 536 29,000  Level Indianapolis Center
07:50PM 39.2342 -85.1753 37° Northeast 467 537 29,000  Level Indianapolis Center
07:51PM 39.3403 -85.0794 35° Northeast 466 536 29,000  Level Indianapolis Center
07:52PM 39.4481 -84.9892 33° Northeast 467 537 29,000  Level Indianapolis Center
07:53PM 39.5564 -84.8950 34° Northeast 471 542 29,000 -60 Level Indianapolis Center
07:54PM 39.6919 -84.8444 16° North 463 533 28,900 -60 Descending Indianapolis Center
07:55PM 39.8178 -84.8067 13° North 461 531 28,900 -360 Level Indianapolis Center
07:56PM 39.9431 -84.7628 15° North 461 531 28,200 -840 Descending Indianapolis Center
07:57PM 40.0689 -84.7139 17° North 463 533 27,200 -960 Descending Indianapolis Center
07:58PM 40.1950 -84.6764 13° North 461 531 26,300 -900 Descending Indianapolis Center
07:59PM 40.3194 -84.6372 13° North 457 526 25,400 -1,200 Descending Indianapolis Center
08:00PM 40.4372 -84.5883 18° North 442 509 23,900 -1,200 Descending Indianapolis Center
08:01PM 40.5539 -84.5522 13° North 426 490 23,000 -480 Descending Indianapolis Center
08:02PM 40.6858 -84.5131 13° North 414 476 23,000  Level Indianapolis Center
08:03PM 40.7975 -84.4686 17° North 415 478 23,000 -60 Level Indianapolis Center
08:04PM 40.9131 -84.4381 11° North 422 486 22,900 -60 Descending Indianapolis Center
08:05PM 41.0303 -84.4325 North 418 481 22,900 -540 Level Indianapolis Center
08:06PM 41.1483 -84.4361 359° North 420 483 21,900 -1,020 Descending Indianapolis Center
08:07PM 41.2567 -84.3972 15° North 405 466 20,900 -1,260 Descending Indianapolis Center
08:08PM 41.3642 -84.3556 16° North 372 428 19,300 -1,440 Descending Indianapolis Center
08:09PM 41.4567 -84.3781 350° North 337 388 18,000 -1,560 Descending Indianapolis Center
08:10PM 41.5411 -84.3711 North 314 361 16,200 -2,280 Descending Indianapolis Center
08:11PM 41.6214 -84.3103 30° Northeast 328 377 13,400 -2,040 Descending Indianapolis Center
08:12PM 41.7083 -84.2411 31° Northeast 351 404 12,100 -660 Descending Indianapolis Center
08:13PM 41.7783 -84.1142 53° Northeast 375 432 12,000 -60 Descending Cleveland Center
08:14PM 41.8319 -83.9972 58° Northeast 371 427 12,000  Level Cleveland Center
08:15PM 41.9078 -83.9036 43° Northeast 373 429 12,000  Level Cleveland Center
08:16PM 41.9775 -83.7956 49° Northeast 363 418 12,000  Level Cleveland Center
08:17PM 42.0472 -83.6900 48° Northeast 368 423 12,000 -300 Level Cleveland Center
08:18PM 42.0944 -83.5550 65° Northeast 380 437 11,400 -540 Descending Cleveland Center
08:19PM 42.1331 -83.4364 66° East 388 447 11,000 -180 Descending Cleveland Center
08:20PM 42.1797 -83.3125 63° Northeast 279 321 11,100 -720 Climbing Cleveland Center
08:21PM 42.2172 -83.2186 62° Northeast 272 313 9,600 -1,500 Descending Cleveland Center
08:22PM 42.2706 -83.1675 35° Northeast 259 298 8,200 -840 Descending Cleveland Center
08:23PM 42.3344 -83.1083 34° Northeast 260 299 8,000 -120 Descending Cleveland Center
08:24PM 42.3983 -83.0519 33° Northeast 251 289 8,000 -300 Level Cleveland Center
08:25PM 42.4514 -83.0033 34° Northeast 233 268 7,500 -720 Descending Cleveland Center
08:26PM 42.4925 -83.0358 330° Northwest 185 213 6,600 -780 Descending Cleveland Center
08:28PM 42.4844 -83.1117 262° West 169 194 5,900 -780 Descending Cleveland Center
08:29PM 42.4564 -83.1556 229° Southwest 180 207 5,100 -540 Descending Cleveland Center
08:30PM 42.4139 -83.1903 211° Southwest 169 194 4,900 -600 Descending Cleveland Center
08:31PM 42.3736 -83.2222 210° Southwest 175 201 4,000 -960 Descending Cleveland Center
08:31PM 42.3333 -83.2517 208° Southwest 169 194 3,100 -900 Descending Cleveland Center
08:32PM 42.2931 -83.2781 206° Southwest 144 166 2,300 -840 Descending Cleveland Center